• In Hungary
  • List of Countries
  • For 7 days
  • Water Temperature
  • Satellite Maps
  • Weather Map
  • News
  • Weather Widgets
  • user-avatar
    Login

    Hourly Weather Elantovo

    Today, 25 September, Tuesday

    Time Temperature Precipitation Wind Pressure Humidity
    00:00 +14°C° 0 mm 1 mps 753 mmHg 82%
    01:00 +14°C° 0 mm 2 mps 753 mmHg 83%
    02:00 +14°C° 0 mm 2 mps 752 mmHg 84%
    03:00 +14°C° 0 mm 2 mps 752 mmHg 85%
    04:00 +12°C° 0 mm 3 mps 752 mmHg 88%
    05:00 +12°C° 0 mm 3 mps 752 mmHg 91%
    06:00 +12°C° 0 mm 4 mps 752 mmHg 94%
    07:00 +12°C° 0 mm 4 mps 752 mmHg 91%
    08:00 +13°C° 0 mm 4 mps 752 mmHg 88%
    09:00 +13°C° 0 mm 4 mps 752 mmHg 86%
    10:00 +14°C° 0.1 mm 5 mps 752 mmHg 83%
    11:00 +14°C° 0.1 mm 5 mps 752 mmHg 80%
    12:00 +15°C° 0.1 mm 5 mps 752 mmHg 77%
    13:00 +15°C° 0.1 mm 6 mps 752 mmHg 75%
    14:00 +15°C° 0.1 mm 6 mps 752 mmHg 73%
    15:00 +16°C° 0.1 mm 6 mps 751 mmHg 71%
    16:00 +15°C° 0.2 mm 5 mps 751 mmHg 73%
    17:00 +15°C° 0.2 mm 5 mps 751 mmHg 75%
    18:00 +14°C° 0.2 mm 4 mps 751 mmHg 77%
    19:00 +14°C° 0.4 mm 5 mps 751 mmHg 77%
    20:00 +14°C° 0.4 mm 5 mps 751 mmHg 78%
    21:00 +14°C° 0.4 mm 5 mps 750 mmHg 79%
    22:00 +14°C° 0.1 mm 6 mps 750 mmHg 75%
    23:00 +14°C° 0.1 mm 6 mps 750 mmHg 72%

    Tomorrow, 26 September, Wednesday

    Time Temperature Precipitation Wind Pressure Humidity
    00:00 +14°C° 0.1 mm 6 mps 750 mmHg 68%
    01:00 +13°C° 0 mm 6 mps 751 mmHg 71%
    02:00 +13°C° 0 mm 5 mps 751 mmHg 75%
    03:00 +12°C° 0 mm 5 mps 751 mmHg 78%
    04:00 +11°C° 0 mm 4 mps 752 mmHg 82%
    05:00 +10°C° 0 mm 4 mps 752 mmHg 85%
    06:00 +8°C° 0 mm 4 mps 753 mmHg 88%
    07:00 +10°C° 0 mm 4 mps 753 mmHg 83%
    08:00 +11°C° 0 mm 4 mps 754 mmHg 77%
    09:00 +10°C° 0 mm 5 mps 755 mmHg 72%
    10:00 +12°C° 0 mm 5 mps 755 mmHg 69%
    11:00 +12°C° 0 mm 5 mps 755 mmHg 66%
    12:00 +13°C° 0 mm 5 mps 756 mmHg 63%
    13:00 +13°C° 0 mm 5 mps 756 mmHg 64%
    14:00 +13°C° 0 mm 5 mps 756 mmHg 64%
    15:00 +12°C° 0 mm 5 mps 757 mmHg 65%
    16:00 +12°C° 0 mm 4 mps 757 mmHg 67%
    17:00 +11°C° 0 mm 3 mps 757 mmHg 69%
    18:00 +11°C° 0 mm 3 mps 757 mmHg 71%
    19:00 +10°C° 0 mm 3 mps 757 mmHg 74%
    20:00 +9°C° 0 mm 3 mps 757 mmHg 77%
    21:00 +9°C° 0 mm 3 mps 757 mmHg 80%
    22:00 +9°C° 0.1 mm 3 mps 757 mmHg 81%
    23:00 +8°C° 0.1 mm 3 mps 757 mmHg 83%

    Day after tomorrow, 27 September, Thursday

    Time Temperature Precipitation Wind Pressure Humidity
    00:00 +7°C° 0.1 mm 4 mps 757 mmHg 85%
    01:00 +7°C° 0 mm 4 mps 757 mmHg 88%
    02:00 +6°C° 0 mm 4 mps 757 mmHg 91%
    03:00 +5°C° 0 mm 4 mps 757 mmHg 93%
    04:00 +5°C° 0 mm 4 mps 756 mmHg 91%
    05:00 +6°C° 0 mm 4 mps 756 mmHg 89%
    06:00 +6°C° 0 mm 5 mps 756 mmHg 87%
    07:00 +6°C° 0 mm 5 mps 756 mmHg 83%
    08:00 +5°C° 0 mm 6 mps 756 mmHg 80%
    09:00 +7°C° 0 mm 6 mps 755 mmHg 76%
    10:00 +6°C° 0 mm 7 mps 755 mmHg 70%
    11:00 +8°C° 0 mm 7 mps 754 mmHg 64%
    12:00 +8°C° 0 mm 7 mps 754 mmHg 59%
    13:00 +9°C° 0 mm 8 mps 753 mmHg 57%
    14:00 +9°C° 0 mm 8 mps 753 mmHg 55%
    15:00 +9°C° 0 mm 8 mps 752 mmHg 53%
    16:00 +8°C° 0.1 mm 7 mps 752 mmHg 56%
    17:00 +8°C° 0.1 mm 7 mps 751 mmHg 60%
    18:00 +7°C° 0.1 mm 6 mps 751 mmHg 63%
    19:00 +6°C° 0.3 mm 7 mps 750 mmHg 67%
    20:00 +5°C° 0.3 mm 7 mps 750 mmHg 71%
    21:00 +5°C° 0.3 mm 8 mps 749 mmHg 75%
    22:00 +5°C° 0.6 mm 7 mps 749 mmHg 78%
    23:00 +4°C° 0.6 mm 7 mps 748 mmHg 82%

    28 September, Friday

    Time Temperature Precipitation Wind Pressure Humidity
    00:00 +4°C° 0.6 mm 6 mps 747 mmHg 86%
    01:00 +4°C° 0.3 mm 6 mps 747 mmHg 87%
    02:00 +5°C° 0.3 mm 5 mps 748 mmHg 89%
    03:00 +6°C° 0.3 mm 5 mps 748 mmHg 90%
    04:00 +5°C° 0 mm 5 mps 748 mmHg 91%
    05:00 +5°C° 0 mm 5 mps 748 mmHg 92%
    06:00 +3°C° 0 mm 5 mps 749 mmHg 92%
    07:00 +4°C° 0 mm 6 mps 749 mmHg 87%
    08:00 +5°C° 0 mm 6 mps 750 mmHg 82%
    09:00 +6°C° 0 mm 7 mps 750 mmHg 77%
    10:00 +6°C° 0 mm 7 mps 751 mmHg 74%
    11:00 +8°C° 0 mm 7 mps 751 mmHg 70%
    12:00 +9°C° 0 mm 7 mps 751 mmHg 67%
    13:00 +9°C° 0 mm 7 mps 752 mmHg 66%
    14:00 +9°C° 0 mm 7 mps 752 mmHg 65%
    15:00 +9°C° 0 mm 6 mps 752 mmHg 64%
    16:00 +9°C° 0 mm 6 mps 752 mmHg 66%
    17:00 +8°C° 0 mm 5 mps 752 mmHg 68%
    18:00 +7°C° 0 mm 4 mps 751 mmHg 70%
    19:00 +8°C° 0.2 mm 5 mps 751 mmHg 69%
    20:00 +8°C° 0.2 mm 6 mps 750 mmHg 68%
    21:00 +8°C° 0.2 mm 7 mps 750 mmHg 67%
    22:00 +7°C° 0.3 mm 8 mps 749 mmHg 69%
    23:00 +8°C° 0.3 mm 9 mps 748 mmHg 70%

    29 September, Saturday

    Time Temperature Precipitation Wind Pressure Humidity
    00:00 +8°C° 0.3 mm 9 mps 747 mmHg 72%
    01:00 +8°C° 0.4 mm 10 mps 746 mmHg 74%
    02:00 +9°C° 0.4 mm 10 mps 746 mmHg 76%
    03:00 +9°C° 0.4 mm 10 mps 745 mmHg 78%
    04:00 +9°C° 1 mm 10 mps 746 mmHg 80%
    05:00 +10°C° 1 mm 9 mps 746 mmHg 82%
    06:00 +10°C° 1 mm 9 mps 747 mmHg 84%
    07:00 +9°C° 0.1 mm 8 mps 748 mmHg 80%
    08:00 +7°C° 0.1 mm 8 mps 750 mmHg 76%
    09:00 +6°C° 0.1 mm 7 mps 751 mmHg 72%
    10:00 +8°C° 0 mm 7 mps 752 mmHg 67%
    11:00 +8°C° 0 mm 7 mps 753 mmHg 63%
    12:00 +8°C° 0 mm 7 mps 754 mmHg 58%
    13:00 +8°C° 0 mm 6 mps 754 mmHg 57%
    14:00 +8°C° 0 mm 5 mps 755 mmHg 56%
    15:00 +8°C° 0 mm 5 mps 756 mmHg 55%
    16:00 +7°C° 0 mm 4 mps 756 mmHg 59%
    17:00 +7°C° 0 mm 3 mps 757 mmHg 64%
    18:00 +6°C° 0 mm 2 mps 757 mmHg 68%
    19:00 +7°C° 0 mm 1 mps 758 mmHg 69%
    20:00 +6°C° 0 mm 1 mps 758 mmHg 71%
    21:00 +6°C° 0 mm 1 mps 759 mmHg 72%
    22:00 +6°C° 0 mm 1 mps 759 mmHg 72%
    23:00 +6°C° 0 mm 1 mps 759 mmHg 73%

    30 September, Sunday

    Time Temperature Precipitation Wind Pressure Humidity
    00:00 +6°C° 0 mm 1 mps 759 mmHg 73%
    01:00 +6°C° 0 mm 1 mps 760 mmHg 74%
    02:00 +6°C° 0 mm 1 mps 760 mmHg 74%
    03:00 +6°C° 0 mm 1 mps 760 mmHg 74%
    04:00 +4°C° 0 mm 0 mps 760 mmHg 75%
    05:00 +4°C° 0 mm 0 mps 760 mmHg 75%
    06:00 +4°C° 0 mm 0 mps 760 mmHg 76%
    07:00 +6°C° 0 mm 1 mps 761 mmHg 72%
    08:00 +7°C° 0 mm 1 mps 761 mmHg 69%
    09:00 +7°C° 0 mm 2 mps 761 mmHg 65%
    10:00 +7°C° 0 mm 2 mps 761 mmHg 62%
    11:00 +8°C° 0 mm 2 mps 761 mmHg 59%
    12:00 +9°C° 0 mm 3 mps 761 mmHg 56%
    13:00 +9°C° 0 mm 3 mps 761 mmHg 56%
    14:00 +8°C° 0 mm 3 mps 761 mmHg 56%
    15:00 +8°C° 0 mm 2 mps 761 mmHg 56%
    16:00 +7°C° 0 mm 2 mps 761 mmHg 58%
    17:00 +7°C° 0 mm 2 mps 762 mmHg 61%
    18:00 +6°C° 0 mm 2 mps 762 mmHg 63%
    19:00 +5°C° 0 mm 2 mps 762 mmHg 66%
    20:00 +5°C° 0 mm 2 mps 763 mmHg 69%
    21:00 +4°C° 0 mm 2 mps 763 mmHg 72%
    22:00 +3°C° 0 mm 2 mps 763 mmHg 73%
    23:00 +3°C° 0 mm 2 mps 764 mmHg 74%
    Show more